Tracking 30417 objects as of 16-May-2025
HD Live streaming from Space Station
objects crossing your sky now

THORAD AGENA D DEB

Track THORAD AGENA D DEB now!
10-day predictions


NORAD ID: 5220
Int'l Code: 1970-025KG
Perigee: 1,002.1 km
Apogee: 1,597.7 km
Inclination: 99.9 °
Period: 111.4 minutes
Semi major axis: 7670 km
RCS: 0.0252 m2 (small)
Launch date: April 8, 1970
Source: United States (US)
Launch site: AIR FORCE WESTERN TEST RANGE (AFWTR)

Note: This is SATELLITE DEBRIS
Your satellite tracking list
Your tracking list is empty




NASA's NSSDC Master Catalog

Two Line Element Set (TLE):
1 05220U 70025KG  25134.75707053  .00000617  00000-0  17306-2 0  9995
2 05220  99.8544  53.5336 0388238 176.7333 246.8801 12.92212136580020
Source of the keplerian elements: AFSPC